Regional Weather Roundup
Issued by NWS Bismarck, ND

Home | Current Version | Previous Version | Text Only | Print | Product List | Glossary On
Versions: 1 2 3 4 5 6 7 8 9 10 11 12 13 14 15 16 17 18 19 20 21 22 23 24 25 26 27 28 29 30 31 32 33 34 35 36 37 38 39 40 41 42 43 44 45 46 47 48 49 50
000
ASUS43 KBIS 261310
RWRBIS

NWR BROADCAST TEXT
NATIONAL WEATHER SERVICE BISMARCK ND
800 AM CDT SUN APR 26 2015

NOTE: "FAIR" INDICATES FEW OR NO CLOUDS BELOW 12,000 FEET WITH NO
SIGNIFICANT WEATHER AND/OR OBSTRUCTIONS TO VISIBILITY.


CITY           SKY/WX    TMP DP  RH WIND       PRES   REMARKS
WILLISTON      CLOUDY    38  35  89 NW13      30.04R
MINOT          LGT RAIN  47  45  93 S3        29.99R FOG
MINOT AFB      DRIZZLE   46  46 100 SW6       29.98R FOG
BISMARCK       CLOUDY    47  46  97 E8        30.02R FOG
DICKINSON      CLOUDY    42  38  85 NW10      29.98S
GARRISON         N/A     45  45 100 S6        30.00R
HETTINGER ARPT CLOUDY    43  40  89 N12       29.99R
JAMESTOWN      PTSUNNY   49  37  63 SE9       30.04R
BEACH          CLOUDY    36  36 100 N9        30.03R FOG
CARRINGTON     PTSUNNY   46  43  87 SE10      30.06R
CROSBY         CLOUDY    37  37 100 W9        30.02S
HARVEY           N/A    N/A N/A N/A MISG        N/A
HAZEN          CLOUDY    46  45  93 S5        30.01R FOG
LINTON         CLOUDY    48  46  93 SE8       30.02R
MANDAN         FOG       45  45 100 SE7       30.02R VSB 1
OAKES            N/A     45  37  76 E5        30.06R
STANLEY        FOG       37  37 100 NW10      30.01R VSB 1/2
WATFORD CITY   CLOUDY    37  37 100 NW7       30.03R
$$

CITY           SKY/WX    TMP DP  RH WIND       PRES   REMARKS
GRAND FORKS    MOSUNNY   41  29  62 SE10      30.10R
GRAND FORKS AF SUNNY     41  32  69 S6        30.10R
DEVILS LAKE    CLOUDY    45  39  81 SE7       30.05R
FARGO          SUNNY     45  16  31 SE9       30.09S
CANDO          CLOUDY    46  41  81 SE7       30.05R
CAVALIER       FAIR      41  32  70 S12       30.09R
GRAFTON        FAIR      43  32  65 S8        30.11R
GWINNER        SUNNY     39  36  87 SE5       30.08R
LANGDON        CLOUDY    46  41  81 S9        30.06R
ROLLA          FAIR      45  45 100 S10       30.05R FOG
WALHALLA       FAIR      41  37  87 SE5       30.08R
$$

CITY           SKY/WX    TMP DP  RH WIND       PRES   REMARKS
ABERDEEN       MOSUNNY   47  38  71 E5        30.05R
MOBRIDGE       CLOUDY    51  42  71 S10       29.98R
BUFFALO          N/A     43  40  89 NE10      29.91R
RAPID CITY     CLOUDY    43  41  93 N16       29.93R
GLASGOW        CLOUDY    38  32  79 NW10      30.05R
SIDNEY         CLOUDY    39  36  87 NW8       30.05R
WOLF POINT     CLOUDY    40  34  79 NW12      30.06R
GLENDIVE       CLOUDY    30  28  93 W5        30.04R VSB 1/2
MILES CITY     FOG       34  34 100 N7        30.00R VSB<1/4
BAKER          FOG       39  38  96 N6        30.01R VSB 3/4
$$

CITY           SKY/WX    TMP DP  RH WIND       PRES   REMARKS
BILLINGS       CLOUDY    38  36  92 NE9       29.98R
GREAT FALLS    CLOUDY    30  24  78 N10       30.09R
REGINA         CLOUDY    34  32  93 W22       29.98R
ESTEVAN        CLOUDY    37  34  87 W14G20    30.01R
$$



USA.gov is the U.S. government's official web portal to all federal, state and local government web resources and services.